Year,Month,Day,Hour,Minute,Value (Times are PST for temperature in C)
2006,04,02,00,00,6.80
2006,04,02,00,01,6.70
2006,04,02,00,02,6.70
2006,04,02,00,03,6.70
2006,04,02,00,04,6.70
2006,04,02,00,05,6.70
2006,04,02,00,06,6.70
2006,04,02,00,07,6.70
2006,04,02,00,08,6.70
2006,04,02,00,09,6.70
2006,04,02,00,10,6.60
2006,04,02,00,11,6.60
2006,04,02,00,12,6.60
2006,04,02,00,13,6.60
2006,04,02,00,14,6.60
2006,04,02,00,15,6.60
2006,04,02,00,16,6.60
2006,04,02,00,17,6.60
2006,04,02,00,18,6.60
2006,04,02,00,19,6.60
2006,04,02,00,20,6.60
2006,04,02,00,21,6.60
2006,04,02,00,22,6.60
2006,04,02,00,23,6.60
2006,04,02,00,24,6.60
2006,04,02,00,25,6.60
2006,04,02,00,26,6.60
2006,04,02,00,27,6.60
2006,04,02,00,28,6.60
2006,04,02,00,29,6.60
2006,04,02,00,30,6.70
2006,04,02,00,31,6.70
2006,04,02,00,32,6.70
2006,04,02,00,33,6.70
2006,04,02,00,34,6.70
2006,04,02,00,35,6.70
2006,04,02,00,36,6.80
2006,04,02,00,37,6.80
2006,04,02,00,38,6.80
2006,04,02,00,39,6.80
2006,04,02,00,40,6.80
2006,04,02,00,41,6.80
2006,04,02,00,42,6.80
2006,04,02,00,43,6.80
2006,04,02,00,44,6.80
2006,04,02,00,45,6.80
2006,04,02,00,46,6.80
2006,04,02,00,47,6.90
2006,04,02,00,48,6.90
2006,04,02,00,49,6.90
2006,04,02,00,50,6.90
2006,04,02,00,51,6.90
2006,04,02,00,52,7.00
2006,04,02,00,53,7.00
2006,04,02,00,54,7.00
2006,04,02,00,55,7.00
2006,04,02,00,56,7.00
2006,04,02,00,57,7.00
2006,04,02,00,58,7.00
2006,04,02,00,59,7.10
2006,04,02,01,00,7.10
2006,04,02,01,01,7.10
2006,04,02,01,02,7.10
2006,04,02,01,03,7.20
2006,04,02,01,04,7.20
2006,04,02,01,05,7.20
2006,04,02,01,06,7.20
2006,04,02,01,07,7.20
2006,04,02,01,08,7.20
2006,04,02,01,09,7.30
2006,04,02,01,10,7.30
2006,04,02,01,11,7.30
2006,04,02,01,12,7.30
2006,04,02,01,13,7.30
2006,04,02,01,14,7.30
2006,04,02,01,15,7.30
2006,04,02,01,16,7.30
2006,04,02,01,17,7.30
2006,04,02,01,18,7.20
2006,04,02,01,19,7.20
2006,04,02,01,20,7.20
2006,04,02,01,21,7.20
2006,04,02,01,22,7.20
2006,04,02,01,23,7.20
2006,04,02,01,24,7.20
2006,04,02,01,25,7.10
2006,04,02,01,26,7.10
2006,04,02,01,27,7.10
2006,04,02,01,28,7.10
2006,04,02,01,29,7.10
2006,04,02,01,30,7.00
2006,04,02,01,31,7.00
2006,04,02,01,32,7.00
2006,04,02,01,33,7.00
2006,04,02,01,34,6.90
2006,04,02,01,35,6.90
2006,04,02,01,36,6.90
2006,04,02,01,37,6.90
2006,04,02,01,38,6.80
2006,04,02,01,39,6.80
2006,04,02,01,40,6.80
2006,04,02,01,41,6.80
2006,04,02,01,42,6.80
2006,04,02,01,43,6.80
2006,04,02,01,44,6.80
2006,04,02,01,45,6.80
2006,04,02,01,46,6.80
2006,04,02,01,47,6.80
2006,04,02,01,48,6.80
2006,04,02,01,49,6.70
2006,04,02,01,50,6.70
2006,04,02,01,51,6.70
2006,04,02,01,52,6.70
2006,04,02,01,53,6.60
2006,04,02,01,54,6.60
2006,04,02,01,55,6.60
2006,04,02,01,56,6.60
2006,04,02,01,57,6.60
2006,04,02,01,58,6.60
2006,04,02,01,59,6.60
2006,04,02,03,00,6.40
2006,04,02,03,01,6.40
2006,04,02,03,02,6.40
2006,04,02,03,03,6.40
2006,04,02,03,04,6.40
2006,04,02,03,05,6.40
2006,04,02,03,06,6.40
2006,04,02,03,07,6.30
2006,04,02,03,08,6.30
2006,04,02,03,09,6.20
2006,04,02,03,10,6.20
2006,04,02,03,11,6.20
2006,04,02,03,12,6.20
2006,04,02,03,13,6.10
2006,04,02,03,14,6.10
2006,04,02,03,15,6.10
2006,04,02,03,16,6.00
2006,04,02,03,17,6.00
2006,04,02,03,18,6.00
2006,04,02,03,19,6.00
2006,04,02,03,20,5.90
2006,04,02,03,21,5.90
2006,04,02,03,22,6.00
2006,04,02,03,23,6.00
2006,04,02,03,24,6.00
2006,04,02,03,25,5.90
2006,04,02,03,26,5.90
2006,04,02,03,27,5.90
2006,04,02,03,28,5.90
2006,04,02,03,29,5.90
2006,04,02,03,30,5.80
2006,04,02,03,31,5.80
2006,04,02,03,32,5.80
2006,04,02,03,33,5.80
2006,04,02,03,34,5.80
2006,04,02,03,35,5.80
2006,04,02,03,36,5.80
2006,04,02,03,37,5.90
2006,04,02,03,38,5.90
2006,04,02,03,39,5.90
2006,04,02,03,40,5.90
2006,04,02,03,41,6.00
2006,04,02,03,42,6.00
2006,04,02,03,43,6.10
2006,04,02,03,44,6.10
2006,04,02,03,45,6.20
2006,04,02,03,46,6.20
2006,04,02,03,47,6.20
2006,04,02,03,48,6.20
2006,04,02,03,49,6.30
2006,04,02,03,50,6.30
2006,04,02,03,51,6.30
2006,04,02,03,52,6.30
2006,04,02,03,53,6.40
2006,04,02,03,54,6.40
2006,04,02,03,55,6.40
2006,04,02,03,56,6.40
2006,04,02,03,57,6.40
2006,04,02,03,58,6.40
2006,04,02,03,59,6.40
2006,04,02,04,00,6.40
2006,04,02,04,01,6.40
2006,04,02,04,02,6.40
2006,04,02,04,03,6.40
2006,04,02,04,04,6.50
2006,04,02,04,05,6.60
2006,04,02,04,06,6.60
2006,04,02,04,07,6.60
2006,04,02,04,08,6.60
2006,04,02,04,09,6.60
2006,04,02,04,10,6.60
2006,04,02,04,11,6.60
2006,04,02,04,12,6.60
2006,04,02,04,13,6.60
2006,04,02,04,14,6.60
2006,04,02,04,15,6.50
2006,04,02,04,16,6.40
2006,04,02,04,17,6.40
2006,04,02,04,18,6.40
2006,04,02,04,19,6.40
2006,04,02,04,20,6.40
2006,04,02,04,21,6.40
2006,04,02,04,22,6.40
2006,04,02,04,23,6.40
2006,04,02,04,24,6.40
2006,04,02,04,25,6.40
2006,04,02,04,26,6.30
2006,04,02,04,27,6.30
2006,04,02,04,28,6.30
2006,04,02,04,29,6.30
2006,04,02,04,30,6.30
2006,04,02,04,31,6.30
2006,04,02,04,32,6.30
2006,04,02,04,33,6.30
2006,04,02,04,34,6.30
2006,04,02,04,35,6.30
2006,04,02,04,36,6.30
2006,04,02,04,37,6.30
2006,04,02,04,38,6.30
2006,04,02,04,39,6.30
2006,04,02,04,40,6.30
2006,04,02,04,41,6.30
2006,04,02,04,42,6.30
2006,04,02,04,43,6.30
2006,04,02,04,44,6.30
2006,04,02,04,45,6.30
2006,04,02,04,46,6.40
2006,04,02,04,47,6.40
2006,04,02,04,48,6.40
2006,04,02,04,49,6.40
2006,04,02,04,50,6.40
2006,04,02,04,51,6.40
2006,04,02,04,52,6.40
2006,04,02,04,53,6.40
2006,04,02,04,54,6.40
2006,04,02,04,55,6.50
2006,04,02,04,56,6.60
2006,04,02,04,57,6.60
2006,04,02,04,58,6.60
2006,04,02,04,59,6.70
2006,04,02,05,00,6.70
2006,04,02,05,01,6.80
2006,04,02,05,02,6.80
2006,04,02,05,03,6.80
2006,04,02,05,04,6.80
2006,04,02,05,05,6.90
2006,04,02,05,06,6.90
2006,04,02,05,07,6.90
2006,04,02,05,08,6.90
2006,04,02,05,09,6.90
2006,04,02,05,10,6.90
2006,04,02,05,11,6.90
2006,04,02,05,12,6.90
2006,04,02,05,13,7.00
2006,04,02,05,14,7.00
2006,04,02,05,15,7.00
2006,04,02,05,16,7.00
2006,04,02,05,17,7.00
2006,04,02,05,18,7.00
2006,04,02,05,19,7.00
2006,04,02,05,20,7.00
2006,04,02,05,21,7.00
2006,04,02,05,22,7.00
2006,04,02,05,23,7.00
2006,04,02,05,24,7.00
2006,04,02,05,25,7.00
2006,04,02,05,26,7.00
2006,04,02,05,27,7.00
2006,04,02,05,28,7.00
2006,04,02,05,29,7.00
2006,04,02,05,30,7.00
2006,04,02,05,31,7.00
2006,04,02,05,32,7.00
2006,04,02,05,33,7.00
2006,04,02,05,34,7.00
2006,04,02,05,35,7.10
2006,04,02,05,36,7.10
2006,04,02,05,37,7.10
2006,04,02,05,38,7.10
2006,04,02,05,39,7.10
2006,04,02,05,40,7.10
2006,04,02,05,41,7.10
2006,04,02,05,42,7.10
2006,04,02,05,43,7.10
2006,04,02,05,44,7.10
2006,04,02,05,45,7.10
2006,04,02,05,46,7.10
2006,04,02,05,47,7.10
2006,04,02,05,48,7.10
2006,04,02,05,49,7.10
2006,04,02,05,50,7.10
2006,04,02,05,51,7.10
2006,04,02,05,52,7.10
2006,04,02,05,53,7.10
2006,04,02,05,54,7.10
2006,04,02,05,55,7.10
2006,04,02,05,56,7.10
2006,04,02,05,57,7.10
2006,04,02,05,58,7.20
2006,04,02,05,59,7.20
2006,04,02,06,00,7.20
2006,04,02,06,01,7.20
2006,04,02,06,02,7.20
2006,04,02,06,03,7.30
2006,04,02,06,04,7.30
2006,04,02,06,05,7.30
2006,04,02,06,06,7.30
2006,04,02,06,07,7.30
2006,04,02,06,08,7.30
2006,04,02,06,09,7.30
2006,04,02,06,10,7.30
2006,04,02,06,11,7.30
2006,04,02,06,12,7.30
2006,04,02,06,13,7.30
2006,04,02,06,14,7.30
2006,04,02,06,15,7.30
2006,04,02,06,16,7.30
2006,04,02,06,17,7.30
2006,04,02,06,18,7.30
2006,04,02,06,19,7.30
2006,04,02,06,20,7.30
2006,04,02,06,21,7.30
2006,04,02,06,22,7.30
2006,04,02,06,23,7.30
2006,04,02,06,24,7.30
2006,04,02,06,25,7.30
2006,04,02,06,26,7.30
2006,04,02,06,27,7.30
2006,04,02,06,28,7.30
2006,04,02,06,29,7.30
2006,04,02,06,30,7.30
2006,04,02,06,31,7.30
2006,04,02,06,32,7.30
2006,04,02,06,33,7.30
2006,04,02,06,34,7.20
2006,04,02,06,35,7.20
2006,04,02,06,36,7.20
2006,04,02,06,37,7.20
2006,04,02,06,38,7.20
2006,04,02,06,39,7.20
2006,04,02,06,40,7.20
2006,04,02,06,41,7.20
2006,04,02,06,42,7.20
2006,04,02,06,43,7.20
2006,04,02,06,44,7.20
2006,04,02,06,45,7.20
2006,04,02,06,46,7.20
2006,04,02,06,47,7.20
2006,04,02,06,48,7.10
2006,04,02,06,49,7.10
2006,04,02,06,50,7.10
2006,04,02,06,51,7.10
2006,04,02,06,52,7.10
2006,04,02,06,53,7.10
2006,04,02,06,54,7.10
2006,04,02,06,55,7.10
2006,04,02,06,56,7.10
2006,04,02,06,57,7.10
2006,04,02,06,58,7.10
2006,04,02,06,59,7.10
2006,04,02,07,00,7.10
2006,04,02,07,01,7.00
2006,04,02,07,02,7.00
2006,04,02,07,03,7.00
2006,04,02,07,04,7.00
2006,04,02,07,05,7.00
2006,04,02,07,06,7.00
2006,04,02,07,07,7.00
2006,04,02,07,08,7.00
2006,04,02,07,09,7.00
2006,04,02,07,10,7.00
2006,04,02,07,11,7.00
2006,04,02,07,12,7.00
2006,04,02,07,13,7.00
2006,04,02,07,14,7.10
2006,04,02,07,15,7.10
2006,04,02,07,16,7.10
2006,04,02,07,17,7.00
2006,04,02,07,18,7.00
2006,04,02,07,19,7.00
2006,04,02,07,20,7.00
2006,04,02,07,21,7.00
2006,04,02,07,22,7.00
2006,04,02,07,23,7.10
2006,04,02,07,24,7.10
2006,04,02,07,25,7.10
2006,04,02,07,26,7.10
2006,04,02,07,27,7.10
2006,04,02,07,28,7.10
2006,04,02,07,29,7.10
2006,04,02,07,30,7.10
2006,04,02,07,31,7.10
2006,04,02,07,32,7.10
2006,04,02,07,33,7.10
2006,04,02,07,34,7.10
2006,04,02,07,35,7.20
2006,04,02,07,36,7.20
2006,04,02,07,37,7.20
2006,04,02,07,38,7.20
2006,04,02,07,39,7.20
2006,04,02,07,40,7.20
2006,04,02,07,41,7.20
2006,04,02,07,42,7.20
2006,04,02,07,43,7.20
2006,04,02,07,44,7.20
2006,04,02,07,45,7.20
2006,04,02,07,46,7.20
2006,04,02,07,47,7.20
2006,04,02,07,48,7.20
2006,04,02,07,49,7.20
2006,04,02,07,50,7.20
2006,04,02,07,51,7.20
2006,04,02,07,52,7.20
2006,04,02,07,53,7.30
2006,04,02,07,54,7.30
2006,04,02,07,55,7.30
2006,04,02,07,56,7.30
2006,04,02,07,57,7.30
2006,04,02,07,58,7.30
2006,04,02,07,59,7.30
2006,04,02,08,00,7.30
2006,04,02,08,01,7.30
2006,04,02,08,02,7.30
2006,04,02,08,03,7.30
2006,04,02,08,04,7.30
2006,04,02,08,05,7.40
2006,04,02,08,06,7.40
2006,04,02,08,07,7.40
2006,04,02,08,08,7.40
2006,04,02,08,09,7.40
2006,04,02,08,10,7.40
2006,04,02,08,11,7.40
2006,04,02,08,12,7.40
2006,04,02,08,13,7.40
2006,04,02,08,14,7.50
2006,04,02,08,15,7.50
2006,04,02,08,16,7.50
2006,04,02,08,17,7.50
2006,04,02,08,18,7.50
2006,04,02,08,19,7.50
2006,04,02,08,20,7.50
2006,04,02,08,21,7.50
2006,04,02,08,22,7.50
2006,04,02,08,23,7.50
2006,04,02,08,24,7.50
2006,04,02,08,25,7.60
2006,04,02,08,26,7.60
2006,04,02,08,27,7.60
2006,04,02,08,28,7.60
2006,04,02,08,29,7.60
2006,04,02,08,30,7.60
2006,04,02,08,31,7.60
2006,04,02,08,32,7.60
2006,04,02,08,33,7.60
2006,04,02,08,34,7.60
2006,04,02,08,35,7.60
2006,04,02,08,36,7.60
2006,04,02,08,37,7.60
2006,04,02,08,38,7.60
2006,04,02,08,39,7.60
2006,04,02,08,40,7.50
2006,04,02,08,41,7.50
2006,04,02,08,42,7.50
2006,04,02,08,43,7.50
2006,04,02,08,44,7.50
2006,04,02,08,45,7.50
2006,04,02,08,46,7.50
2006,04,02,08,47,7.50
2006,04,02,08,48,7.50
2006,04,02,08,49,7.60
2006,04,02,08,50,7.60
2006,04,02,08,51,7.60
2006,04,02,08,52,7.60
2006,04,02,08,53,7.60
2006,04,02,08,54,7.60
2006,04,02,08,55,7.60
2006,04,02,08,56,7.60
2006,04,02,08,57,7.60
2006,04,02,08,58,7.70
2006,04,02,08,59,7.70
2006,04,02,09,00,7.70
2006,04,02,09,01,7.70
2006,04,02,09,02,7.80
2006,04,02,09,03,7.80
2006,04,02,09,04,7.80
2006,04,02,09,05,7.80
2006,04,02,09,06,7.80
2006,04,02,09,07,7.80
2006,04,02,09,08,7.80
2006,04,02,09,09,7.80
2006,04,02,09,10,7.90
2006,04,02,09,11,7.90
2006,04,02,09,12,7.90
2006,04,02,09,13,7.90
2006,04,02,09,14,8.00
2006,04,02,09,15,8.00
2006,04,02,09,16,8.00
2006,04,02,09,17,8.10
2006,04,02,09,18,8.10
2006,04,02,09,19,8.10
2006,04,02,09,20,8.20
2006,04,02,09,21,8.20
2006,04,02,09,22,8.20
2006,04,02,09,23,8.20
2006,04,02,09,24,8.20
2006,04,02,09,25,8.30
2006,04,02,09,26,8.30
2006,04,02,09,27,8.40
2006,04,02,09,28,8.40
2006,04,02,09,29,8.40
2006,04,02,09,30,8.50
2006,04,02,09,31,8.50
2006,04,02,09,32,8.60
2006,04,02,09,33,8.60
2006,04,02,09,34,8.60
2006,04,02,09,35,8.60
2006,04,02,09,36,8.60
2006,04,02,09,37,8.60
2006,04,02,09,38,8.60
2006,04,02,09,39,8.70
2006,04,02,09,40,8.70
2006,04,02,09,41,8.70
2006,04,02,09,42,8.70
2006,04,02,09,43,8.60
2006,04,02,09,44,8.60
2006,04,02,09,45,8.60
2006,04,02,09,46,8.60
2006,04,02,09,47,8.70
2006,04,02,09,48,8.70
2006,04,02,09,49,8.70
2006,04,02,09,50,8.70
2006,04,02,09,51,8.70
2006,04,02,09,52,8.70
2006,04,02,09,53,8.70
2006,04,02,09,54,8.70
2006,04,02,09,55,8.70
2006,04,02,09,56,8.70
2006,04,02,09,57,8.80
2006,04,02,09,58,8.80
2006,04,02,09,59,8.80
2006,04,02,10,00,8.80
2006,04,02,10,01,8.80
2006,04,02,10,02,8.90
2006,04,02,10,03,8.90
2006,04,02,10,04,8.90
2006,04,02,10,05,9.00
2006,04,02,10,06,9.00
2006,04,02,10,07,9.00
2006,04,02,10,08,9.00
2006,04,02,10,09,8.90
2006,04,02,10,10,8.90
2006,04,02,10,11,8.90
2006,04,02,10,12,8.80
2006,04,02,10,13,8.80
2006,04,02,10,14,8.70
2006,04,02,10,15,8.80
2006,04,02,10,16,8.70
2006,04,02,10,17,8.80
2006,04,02,10,18,8.80
2006,04,02,10,19,8.80
2006,04,02,10,20,8.80
2006,04,02,10,21,8.80
2006,04,02,10,22,8.80
2006,04,02,10,23,8.90
2006,04,02,10,24,8.90
2006,04,02,10,25,8.90
2006,04,02,10,26,8.80
2006,04,02,10,27,8.80
2006,04,02,10,28,8.70
2006,04,02,10,29,8.80
2006,04,02,10,30,8.80
2006,04,02,10,31,8.90
2006,04,02,10,32,8.90
2006,04,02,10,33,9.00
2006,04,02,10,34,9.00
2006,04,02,10,35,9.10
2006,04,02,10,36,9.20
2006,04,02,10,37,9.20
2006,04,02,10,38,9.20
2006,04,02,10,39,9.20
2006,04,02,10,40,9.20
2006,04,02,10,41,9.20
2006,04,02,10,42,9.20
2006,04,02,10,43,9.20
2006,04,02,10,44,9.20
2006,04,02,10,45,9.20
2006,04,02,10,46,9.20
2006,04,02,10,47,9.20
2006,04,02,10,48,9.20
2006,04,02,10,49,9.20
2006,04,02,10,50,9.20
2006,04,02,10,51,9.20
2006,04,02,10,52,9.30
2006,04,02,10,53,9.30
2006,04,02,10,54,9.20
2006,04,02,10,55,9.20
2006,04,02,10,56,9.20
2006,04,02,10,57,9.20
2006,04,02,10,58,9.30
2006,04,02,10,59,9.30
2006,04,02,11,00,9.30
2006,04,02,11,01,9.40
2006,04,02,11,02,9.50
2006,04,02,11,03,9.60
2006,04,02,11,04,9.70
2006,04,02,11,05,9.70
2006,04,02,11,06,9.80
2006,04,02,11,07,9.90
2006,04,02,11,08,9.90
2006,04,02,11,09,9.90
2006,04,02,11,10,9.90
2006,04,02,11,11,9.90
2006,04,02,11,12,9.90
2006,04,02,11,13,9.90
2006,04,02,11,14,9.80
2006,04,02,11,15,9.70
2006,04,02,11,16,9.70
2006,04,02,11,17,9.70
2006,04,02,11,18,9.70
2006,04,02,11,19,9.70
2006,04,02,11,20,9.70
2006,04,02,11,21,9.80
2006,04,02,11,22,9.90
2006,04,02,11,23,9.90
2006,04,02,11,24,9.90
2006,04,02,11,25,9.80
2006,04,02,11,26,9.90
2006,04,02,11,27,9.90
2006,04,02,11,28,9.90
2006,04,02,11,29,9.90
2006,04,02,11,30,10.00
2006,04,02,11,31,10.10
2006,04,02,11,32,10.20
2006,04,02,11,33,10.30
2006,04,02,11,34,10.40
2006,04,02,11,35,10.40
2006,04,02,11,36,10.40
2006,04,02,11,37,10.50
2006,04,02,11,38,10.50
2006,04,02,11,39,10.40
2006,04,02,11,40,10.40
2006,04,02,11,41,10.40
2006,04,02,11,42,10.40
2006,04,02,11,43,10.50
2006,04,02,11,44,10.40
2006,04,02,11,45,10.40
2006,04,02,11,46,10.50
2006,04,02,11,47,10.60
2006,04,02,11,48,10.60
2006,04,02,11,49,10.70
2006,04,02,11,50,10.70
2006,04,02,11,51,10.70
2006,04,02,11,52,10.60
2006,04,02,11,53,10.60
2006,04,02,11,54,10.60
2006,04,02,11,55,10.60
2006,04,02,11,56,10.60
2006,04,02,11,57,10.70
2006,04,02,11,58,10.80
2006,04,02,11,59,10.90
2006,04,02,12,00,10.90
2006,04,02,12,01,10.90
2006,04,02,12,02,10.90
2006,04,02,12,03,11.10
2006,04,02,12,04,11.20
2006,04,02,12,05,11.20
2006,04,02,12,06,11.30
2006,04,02,12,07,11.30
2006,04,02,12,08,11.30
2006,04,02,12,09,11.30
2006,04,02,12,10,11.30
2006,04,02,12,11,11.30
2006,04,02,12,12,11.30
2006,04,02,12,13,11.30
2006,04,02,12,14,11.30
2006,04,02,12,15,11.30
2006,04,02,12,16,11.20
2006,04,02,12,17,11.10
2006,04,02,12,18,11.10
2006,04,02,12,19,11.10
2006,04,02,12,20,11.10
2006,04,02,12,21,11.10
2006,04,02,12,22,11.10
2006,04,02,12,23,11.10
2006,04,02,12,24,11.10
2006,04,02,12,25,11.10
2006,04,02,12,26,11.10
2006,04,02,12,27,11.10
2006,04,02,12,28,11.10
2006,04,02,12,29,11.10
2006,04,02,12,30,11.10
2006,04,02,12,31,11.10
2006,04,02,12,32,11.10
2006,04,02,12,33,11.20
2006,04,02,12,34,11.30
2006,04,02,12,35,11.30
2006,04,02,12,36,11.40
2006,04,02,12,37,11.50
2006,04,02,12,38,11.60
2006,04,02,12,39,11.60
2006,04,02,12,40,11.60
2006,04,02,12,41,11.60
2006,04,02,12,42,11.40
2006,04,02,12,43,11.40
2006,04,02,12,44,11.40
2006,04,02,12,45,11.50
2006,04,02,12,46,11.60
2006,04,02,12,47,11.70
2006,04,02,12,48,11.70
2006,04,02,12,49,11.70
2006,04,02,12,50,11.70
2006,04,02,12,51,11.70
2006,04,02,12,52,11.70
2006,04,02,12,53,11.70
2006,04,02,12,54,11.70
2006,04,02,12,55,11.70
2006,04,02,12,56,11.60
2006,04,02,12,57,11.60
2006,04,02,12,58,11.60
2006,04,02,12,59,11.60
2006,04,02,13,00,11.60
2006,04,02,13,01,11.60
2006,04,02,13,02,11.60
2006,04,02,13,03,11.80
2006,04,02,13,04,11.90
2006,04,02,13,05,12.00
2006,04,02,13,06,12.20
2006,04,02,13,07,12.30
2006,04,02,13,08,12.30
2006,04,02,13,09,12.50
2006,04,02,13,10,12.50
2006,04,02,13,11,12.60
2006,04,02,13,12,12.60
2006,04,02,13,13,12.50
2006,04,02,13,14,12.40
2006,04,02,13,15,12.20
2006,04,02,13,16,12.10
2006,04,02,13,17,12.00
2006,04,02,13,18,12.00
2006,04,02,13,19,12.00
2006,04,02,13,20,12.10
2006,04,02,13,21,12.10
2006,04,02,13,22,12.10
2006,04,02,13,23,12.20
2006,04,02,13,24,12.20
2006,04,02,13,25,12.30
2006,04,02,13,26,12.30
2006,04,02,13,27,12.30
2006,04,02,13,28,12.30
2006,04,02,13,29,12.40
2006,04,02,13,30,12.40
2006,04,02,13,31,12.50
2006,04,02,13,32,12.50
2006,04,02,13,33,12.60
2006,04,02,13,34,12.60
2006,04,02,13,35,12.70
2006,04,02,13,36,12.70
2006,04,02,13,37,12.60
2006,04,02,13,38,12.60
2006,04,02,13,39,12.60
2006,04,02,13,40,12.70
2006,04,02,13,41,12.70
2006,04,02,13,42,12.70
2006,04,02,13,43,12.70
2006,04,02,13,44,12.70
2006,04,02,13,45,12.80
2006,04,02,13,46,12.70
2006,04,02,13,47,12.70
2006,04,02,13,48,12.70
2006,04,02,13,49,12.70
2006,04,02,13,50,12.70
2006,04,02,13,51,12.60
2006,04,02,13,52,12.50
2006,04,02,13,53,12.50
2006,04,02,13,54,12.50
2006,04,02,13,55,12.50
2006,04,02,13,56,12.50
2006,04,02,13,57,12.40
2006,04,02,13,58,12.30
2006,04,02,13,59,12.30
2006,04,02,14,00,12.20
2006,04,02,14,01,12.20
2006,04,02,14,02,12.20
2006,04,02,14,03,12.20
2006,04,02,14,04,12.20
2006,04,02,14,05,12.20
2006,04,02,14,06,12.10
2006,04,02,14,07,12.10
2006,04,02,14,08,12.10
2006,04,02,14,09,12.10
2006,04,02,14,10,12.10
2006,04,02,14,11,12.10
2006,04,02,14,12,12.10
2006,04,02,14,13,12.10
2006,04,02,14,14,12.10
2006,04,02,14,15,12.00
2006,04,02,14,16,12.00
2006,04,02,14,17,12.00
2006,04,02,14,18,11.90
2006,04,02,14,19,11.90
2006,04,02,14,20,12.00
2006,04,02,14,21,11.90
2006,04,02,14,22,11.90
2006,04,02,14,23,11.90
2006,04,02,14,24,11.90
2006,04,02,14,25,11.90
2006,04,02,14,26,12.00
2006,04,02,14,27,12.00
2006,04,02,14,28,12.00
2006,04,02,14,29,12.00
2006,04,02,14,30,12.00
2006,04,02,14,31,12.00
2006,04,02,14,32,12.00
2006,04,02,14,33,12.10
2006,04,02,14,34,12.10
2006,04,02,14,35,12.10
2006,04,02,14,36,12.10
2006,04,02,14,37,12.20
2006,04,02,14,38,12.30
2006,04,02,14,39,12.30
2006,04,02,14,40,12.30
2006,04,02,14,41,12.30
2006,04,02,14,42,12.40
2006,04,02,14,43,12.40
2006,04,02,14,44,12.50
2006,04,02,14,45,12.50
2006,04,02,14,46,12.60
2006,04,02,14,47,12.60
2006,04,02,14,48,12.60
2006,04,02,14,49,12.60
2006,04,02,14,50,12.70
2006,04,02,14,51,12.70
2006,04,02,14,52,12.80
2006,04,02,14,53,12.80
2006,04,02,14,54,12.80
2006,04,02,14,55,12.80
2006,04,02,14,56,12.80
2006,04,02,14,57,12.90
2006,04,02,14,58,13.00
2006,04,02,14,59,13.00
2006,04,02,15,00,13.10
2006,04,02,15,01,13.10
2006,04,02,15,02,13.10
2006,04,02,15,03,13.10
2006,04,02,15,04,13.10
2006,04,02,15,05,13.10
2006,04,02,15,06,13.10
2006,04,02,15,07,13.20
2006,04,02,15,08,13.20
2006,04,02,15,09,13.30
2006,04,02,15,10,13.40
2006,04,02,15,11,13.60
2006,04,02,15,12,13.70
2006,04,02,15,13,13.80
2006,04,02,15,14,13.90
2006,04,02,15,15,14.00
2006,04,02,15,16,14.00
2006,04,02,15,17,13.90
2006,04,02,15,18,13.90
2006,04,02,15,19,14.00
2006,04,02,15,20,14.10
2006,04,02,15,21,14.20
2006,04,02,15,22,14.20
2006,04,02,15,23,14.10
2006,04,02,15,24,14.10
2006,04,02,15,25,14.00
2006,04,02,15,26,14.10
2006,04,02,15,27,14.10
2006,04,02,15,28,14.10
2006,04,02,15,29,14.20
2006,04,02,15,30,14.20
2006,04,02,15,31,14.20
2006,04,02,15,32,14.20
2006,04,02,15,33,14.20
2006,04,02,15,34,14.20
2006,04,02,15,35,14.20
2006,04,02,15,36,14.20
2006,04,02,15,37,14.20
2006,04,02,15,38,14.30
2006,04,02,15,39,14.30
2006,04,02,15,40,14.20
2006,04,02,15,41,14.20
2006,04,02,15,42,14.20
2006,04,02,15,43,14.20
2006,04,02,15,44,14.20
2006,04,02,15,45,14.20
2006,04,02,15,46,14.20
2006,04,02,15,47,14.20
2006,04,02,15,48,14.20
2006,04,02,15,49,14.40
2006,04,02,15,50,14.30
2006,04,02,15,51,14.30
2006,04,02,15,52,14.40
2006,04,02,15,53,14.50
2006,04,02,15,54,14.60
2006,04,02,15,55,14.70
2006,04,02,15,56,14.80
2006,04,02,15,57,14.80
2006,04,02,15,58,14.80
2006,04,02,15,59,14.80
2006,04,02,16,00,14.80
2006,04,02,16,01,14.80
2006,04,02,16,02,14.80
2006,04,02,16,03,14.80
2006,04,02,16,04,14.80
2006,04,02,16,05,14.80
2006,04,02,16,06,14.90
2006,04,02,16,07,15.00
2006,04,02,16,08,15.00
2006,04,02,16,09,15.00
2006,04,02,16,10,15.00
2006,04,02,16,11,14.80
2006,04,02,16,12,14.70
2006,04,02,16,13,14.70
2006,04,02,16,14,14.60
2006,04,02,16,15,14.50
2006,04,02,16,16,14.50
2006,04,02,16,17,14.50
2006,04,02,16,18,14.40
2006,04,02,16,19,14.50
2006,04,02,16,20,14.50
2006,04,02,16,21,14.40
2006,04,02,16,22,14.40
2006,04,02,16,23,14.30
2006,04,02,16,24,14.20
2006,04,02,16,25,14.20
2006,04,02,16,26,14.20
2006,04,02,16,27,14.20
2006,04,02,16,28,14.20
2006,04,02,16,29,14.20
2006,04,02,16,30,14.10
2006,04,02,16,31,14.10
2006,04,02,16,32,14.10
2006,04,02,16,33,14.10
2006,04,02,16,34,14.10
2006,04,02,16,35,14.10
2006,04,02,16,36,14.10
2006,04,02,16,37,14.20
2006,04,02,16,38,14.20
2006,04,02,16,39,14.20
2006,04,02,16,40,14.20
2006,04,02,16,41,14.20
2006,04,02,16,42,14.20
2006,04,02,16,43,14.20
2006,04,02,16,44,14.20
2006,04,02,16,45,14.20
2006,04,02,16,46,14.10
2006,04,02,16,47,14.10
2006,04,02,16,48,14.00
2006,04,02,16,49,14.00
2006,04,02,16,50,14.00
2006,04,02,16,51,14.10
2006,04,02,16,52,14.10
2006,04,02,16,53,14.10
2006,04,02,16,54,14.10
2006,04,02,16,55,14.10
2006,04,02,16,56,14.10
2006,04,02,16,57,14.00
2006,04,02,16,58,14.00
2006,04,02,16,59,14.00
2006,04,02,17,00,14.10
2006,04,02,17,01,14.10
2006,04,02,17,02,14.00
2006,04,02,17,03,14.00
2006,04,02,17,04,13.90
2006,04,02,17,05,13.90
2006,04,02,17,06,13.90
2006,04,02,17,07,14.00
2006,04,02,17,08,14.00
2006,04,02,17,09,14.00
2006,04,02,17,10,13.90
2006,04,02,17,11,13.90
2006,04,02,17,12,13.80
2006,04,02,17,13,13.80
2006,04,02,17,14,13.80
2006,04,02,17,15,13.70
2006,04,02,17,16,13.70
2006,04,02,17,17,13.70
2006,04,02,17,18,13.70
2006,04,02,17,19,13.70
2006,04,02,17,20,13.70
2006,04,02,17,21,13.70
2006,04,02,17,22,13.70
2006,04,02,17,23,13.70
2006,04,02,17,24,13.70
2006,04,02,17,25,13.70
2006,04,02,17,26,13.70
2006,04,02,17,27,13.70
2006,04,02,17,28,13.70
2006,04,02,17,29,13.70
2006,04,02,17,30,13.70
2006,04,02,17,31,13.70
2006,04,02,17,32,13.70
2006,04,02,17,33,13.70
2006,04,02,17,34,13.70
2006,04,02,17,35,13.70
2006,04,02,17,36,13.60
2006,04,02,17,37,13.60
2006,04,02,17,38,13.70
2006,04,02,17,39,13.70
2006,04,02,17,40,13.70
2006,04,02,17,41,13.70
2006,04,02,17,42,13.70
2006,04,02,17,43,13.70
2006,04,02,17,44,13.70
2006,04,02,17,45,13.70
2006,04,02,17,46,13.70
2006,04,02,17,47,13.70
2006,04,02,17,48,13.60
2006,04,02,17,49,13.70
2006,04,02,17,50,13.60
2006,04,02,17,51,13.60
2006,04,02,17,52,13.60
2006,04,02,17,53,13.60
2006,04,02,17,54,13.60
2006,04,02,17,55,13.60
2006,04,02,17,56,13.60
2006,04,02,17,57,13.60
2006,04,02,17,58,13.60
2006,04,02,17,59,13.60
2006,04,02,18,00,13.50
2006,04,02,18,01,13.50
2006,04,02,18,02,13.50
2006,04,02,18,03,13.50
2006,04,02,18,04,13.50
2006,04,02,18,05,13.40
2006,04,02,18,06,13.40
2006,04,02,18,07,13.50
2006,04,02,18,08,13.50
2006,04,02,18,09,13.50
2006,04,02,18,10,13.40
2006,04,02,18,11,13.40
2006,04,02,18,12,13.40
2006,04,02,18,13,13.40
2006,04,02,18,14,13.30
2006,04,02,18,15,13.30
2006,04,02,18,16,13.30
2006,04,02,18,17,13.30
2006,04,02,18,18,13.30
2006,04,02,18,19,13.30
2006,04,02,18,20,13.40
2006,04,02,18,21,13.40
2006,04,02,18,22,13.40
2006,04,02,18,23,13.40
2006,04,02,18,24,13.40
2006,04,02,18,25,13.40
2006,04,02,18,26,13.40
2006,04,02,18,27,13.40
2006,04,02,18,28,13.40
2006,04,02,18,29,13.30
2006,04,02,18,30,13.30
2006,04,02,18,31,13.30
2006,04,02,18,32,13.40
2006,04,02,18,33,13.30
2006,04,02,18,34,13.30
2006,04,02,18,35,13.30
2006,04,02,18,36,13.30
2006,04,02,18,37,13.30
2006,04,02,18,38,13.30
2006,04,02,18,39,13.30
2006,04,02,18,40,13.30
2006,04,02,18,41,13.30
2006,04,02,18,42,13.20
2006,04,02,18,43,13.20
2006,04,02,18,44,13.20
2006,04,02,18,45,13.20
2006,04,02,18,46,13.20